This is the latest recevied weather packets stored in our database for station/object KC1HBM. If no packets are shown the sender has not sent any weather packets the latest 1 day(s).
| Time | Temp. | Humidity | Pressure | Rain* | Wind** | Luminosity | Snow |
|---|---|---|---|---|---|---|---|
| 1778047759 | 11.67° C | 88% | 1006.2 hPa | 0 mm | 1.34 m/s, 241° | 0 W/m² | - |
| 1778047457 | 11.67° C | 87% | 1006.1 hPa | 0 mm | 0.45 m/s, 354° | 0 W/m² | - |
| 1778047153 | 11.67° C | 87% | 1006.3 hPa | 0 mm | 0.89 m/s, 57° | 0 W/m² | - |
| 1778046850 | 12.22° C | 86% | 1006.3 hPa | 0 mm | 1.79 m/s, 28° | 0 W/m² | - |
| 1778046547 | 12.22° C | 86% | 1006.2 hPa | 0 mm | 1.34 m/s, 51° | 0 W/m² | - |
| 1778046244 | 12.78° C | 85% | 1006.2 hPa | 0 mm | 1.34 m/s, 42° | 0 W/m² | - |
| 1778045940 | 12.78° C | 84% | 1006.1 hPa | 0 mm | 1.34 m/s, 43° | 0 W/m² | - |
| 1778045638 | 12.78° C | 84% | 1006.2 hPa | 0 mm | 2.24 m/s, 318° | 0 W/m² | - |
| 1778045336 | 12.78° C | 83% | 1006.2 hPa | 0 mm | 1.34 m/s, 326° | 0 W/m² | - |
| 1778045035 | 12.78° C | 83% | 1006.2 hPa | 0 mm | 1.79 m/s, 33° | 0 W/m² | - |
| 1778044732 | 12.78° C | 83% | 1006.2 hPa | 0 mm | 1.34 m/s, 334° | 0 W/m² | - |
| 1778044428 | 12.78° C | 84% | 1006.2 hPa | 0 mm | 1.34 m/s, 46° | 0 W/m² | - |
| 1778044126 | 12.78° C | 85% | 1006.3 hPa | 0 mm | 0 m/s | 0 W/m² | - |
| 1778043823 | 12.22° C | 85% | 1006.2 hPa | 0 mm | 0 m/s | 0 W/m² | - |
| 1778043520 | 12.22° C | 85% | 1006.3 hPa | 0 mm | 0.45 m/s, 314° | 0 W/m² | - |
| 1778043217 | 12.78° C | 85% | 1006.3 hPa | 0 mm | 0 m/s | 0 W/m² | - |
| 1778042913 | 12.22° C | 85% | 1006.4 hPa | 0 mm | 1.34 m/s, 310° | 0 W/m² | - |
| 1778042611 | 12.78° C | 85% | 1006.4 hPa | 0 mm | 0 m/s | 0 W/m² | - |
| 1778042308 | 12.78° C | 85% | 1006.2 hPa | 0 mm | 0.45 m/s, 350° | 0 W/m² | - |
| 1778042005 | 12.78° C | 84% | 1006.2 hPa | 0 mm | 0.89 m/s, 41° | 0 W/m² | - |
| 1778041704 | 12.78° C | 84% | 1006.1 hPa | 0 mm | 0.89 m/s, 34° | 0 W/m² | - |
| 1778041403 | 12.78° C | 84% | 1006.3 hPa | 0 mm | 0 m/s | 0 W/m² | - |
| 1778041101 | 12.78° C | 84% | 1005.9 hPa | 0 mm | 0.89 m/s, 333° | 0 W/m² | - |
| 1778040797 | 12.78° C | 84% | 1006.1 hPa | 0 mm | 1.34 m/s, 353° | 0 W/m² | - |
| 1778040495 | 12.78° C | 84% | 1006.2 hPa | 0 mm | 0.45 m/s, 336° | 0 W/m² | - |
* Rain latest hour (hover to see other rain measurements)
** Current wind speed in m/s (hover to see current wind gust speed)